"datetime","# probes","# resolvers","can_ipv6","can_ipv6_prbs","can_tcp","can_tcp_prbs","can_tcp6","can_tcp6_prbs","does_ecs","does_ecs_prbs","does_flagday","does_flagday_prbs","does_rov4","does_rov4_prbs","does_rov6","does_rov6_prbs","does_qnamemin","doesnt_qnamemin","does_qnamemin_prbs","doesnt_qnamemin_prbs","does_nxdomain","doesnt_nxdomain","does_nxdomain_prbs","doesnt_nxdomain_prbs","has_ta_19036","hasnt_ta_19036","has_ta_19036_prbs","hasnt_ta_19036_prbs","has_ta_20326","hasnt_ta_20326","has_ta_20326_prbs","hasnt_ta_20326_prbs","can_rsamd5","cannot_rsamd5","broken_rsamd5","can_rsamd5_prbs","cannot_rsamd5_prbs","broken_rsamd5_prbs","can_dsa","cannot_dsa","broken_dsa","can_dsa_prbs","cannot_dsa_prbs","broken_dsa_prbs","can_rsasha1","cannot_rsasha1","broken_rsasha1","can_rsasha1_prbs","cannot_rsasha1_prbs","broken_rsasha1_prbs","can_dsansec3","cannot_dsansec3","broken_dsansec3","can_dsansec3_prbs","cannot_dsansec3_prbs","broken_dsansec3_prbs","can_rsansec3","cannot_rsansec3","broken_rsansec3","can_rsansec3_prbs","cannot_rsansec3_prbs","broken_rsansec3_prbs","can_rsasha256","cannot_rsasha256","broken_rsasha256","can_rsasha256_prbs","cannot_rsasha256_prbs","broken_rsasha256_prbs","can_rsasha512","cannot_rsasha512","broken_rsasha512","can_rsasha512_prbs","cannot_rsasha512_prbs","broken_rsasha512_prbs","can_eccgost","cannot_eccgost","broken_eccgost","can_eccgost_prbs","cannot_eccgost_prbs","broken_eccgost_prbs","can_ecdsa256","cannot_ecdsa256","broken_ecdsa256","can_ecdsa256_prbs","cannot_ecdsa256_prbs","broken_ecdsa256_prbs","can_ecdsa384","cannot_ecdsa384","broken_ecdsa384","can_ecdsa384_prbs","cannot_ecdsa384_prbs","broken_ecdsa384_prbs","can_ed25519","cannot_ed25519","broken_ed25519","can_ed25519_prbs","cannot_ed25519_prbs","broken_ed25519_prbs","can_ed448","cannot_ed448","broken_ed448","can_ed448_prbs","cannot_ed448_prbs","broken_ed448_prbs","can_gost","cannot_gost","broken_gost","can_gost_prbs","cannot_gost_prbs","broken_gost_prbs","can_sha384","cannot_sha384","broken_sha384","can_sha384_prbs","cannot_sha384_prbs","broken_sha384_prbs","is_internal","is_forwarding","is_external","is_internal_prbs","is_forwarding_prbs","is_external_prbs"
2017-06-20T23:59:58Z,23,45,27,16,45,23,26,16,2,2,0,0,0,0,0,0,0,45,0,23,0,45,0,23,0,0,0,0,0,0,0,0,12,31,2,7,17,2,12,33,0,7,18,0,14,31,0,8,16,0,12,33,0,7,18,0,14,31,0,8,16,0,14,31,0,8,16,0,14,31,0,8,16,0,0,45,0,1,23,0,11,34,0,7,18,0,11,34,0,7,18,0,0,45,0,0,23,0,0,45,0,0,23,0,2,43,0,2,22,0,13,32,0,8,17,0,43,1,1,22,2,1
2017-06-21T23:59:59Z,23,45,27,16,45,23,26,16,2,2,0,0,0,0,0,0,0,45,0,23,0,45,0,23,0,0,0,0,0,0,0,0,12,31,2,7,17,2,12,33,0,7,18,0,14,31,0,8,16,0,12,33,0,7,18,0,14,31,0,8,16,0,14,31,0,8,16,0,14,31,0,8,16,0,0,45,0,1,23,0,11,34,0,7,18,0,11,34,0,7,18,0,0,45,0,0,23,0,0,45,0,0,23,0,2,43,0,2,22,0,13,32,0,8,17,0,43,1,1,22,2,1
2017-06-22T23:59:57Z,24,47,27,16,47,24,26,16,2,2,0,0,0,0,0,0,0,47,0,24,0,47,0,24,0,0,0,0,0,0,0,0,12,33,2,7,18,2,12,35,0,7,19,0,14,33,0,8,17,0,12,35,0,7,19,0,14,33,0,8,17,0,14,33,0,8,17,0,14,33,0,8,17,0,0,47,0,1,24,0,11,36,0,7,19,0,11,36,0,7,19,0,0,47,0,0,24,0,0,47,0,0,24,0,2,45,0,2,23,0,13,34,0,8,18,0,45,1,1,23,2,1
2017-06-23T23:59:58Z,23,46,26,15,46,23,25,15,2,2,0,0,0,0,0,0,0,46,0,23,0,46,0,23,0,0,0,0,0,0,0,0,12,32,2,7,17,2,12,34,0,7,18,0,14,32,0,8,16,0,12,34,0,7,18,0,14,32,0,8,16,0,14,32,0,8,16,0,14,32,0,8,16,0,0,46,0,1,23,0,11,35,0,7,18,0,11,35,0,7,18,0,0,46,0,0,23,0,0,46,0,0,23,0,2,44,0,2,22,0,13,33,0,8,17,0,44,1,1,22,2,1
2017-06-24T23:59:59Z,23,46,26,15,46,23,25,15,2,2,0,0,0,0,0,0,0,46,0,23,0,46,0,23,0,0,0,0,0,0,0,0,12,32,2,7,17,2,12,34,0,7,18,0,14,32,0,8,16,0,12,34,0,7,18,0,14,32,0,8,16,0,14,32,0,8,16,0,14,32,0,8,16,0,0,46,0,1,23,0,11,35,0,7,18,0,11,35,0,7,18,0,0,46,0,0,23,0,0,46,0,0,23,0,2,44,0,2,22,0,13,33,0,8,17,0,44,1,1,22,2,1
2017-06-25T23:59:59Z,22,45,25,14,45,22,24,14,2,2,0,0,0,0,0,0,0,45,0,22,0,45,0,22,0,0,0,0,0,0,0,0,12,31,2,7,16,2,12,33,0,7,17,0,14,31,0,8,15,0,12,33,0,7,17,0,14,31,0,8,15,0,14,31,0,8,15,0,14,31,0,8,15,0,0,45,0,1,22,0,11,34,0,7,17,0,11,34,0,7,17,0,0,45,0,0,22,0,0,45,0,0,22,0,2,43,0,2,21,0,13,32,0,8,16,0,43,1,1,21,2,1
2017-06-26T23:59:06Z,25,49,29,17,49,25,28,17,3,3,0,0,0,0,0,0,0,49,0,25,0,49,0,25,0,0,0,0,0,0,0,0,13,33,3,8,19,3,13,36,0,8,20,0,16,33,0,9,17,0,13,36,0,8,20,0,16,33,0,9,17,0,16,33,0,9,17,0,16,33,0,9,17,0,0,49,0,2,25,0,13,36,0,8,19,0,13,36,0,8,19,0,0,49,0,0,25,0,0,49,0,0,25,0,3,46,0,3,24,0,15,34,0,9,18,0,46,1,2,24,3,2
2017-06-27T23:59:59Z,25,49,29,17,49,25,28,17,3,3,0,0,0,0,0,0,0,49,0,25,0,49,0,25,0,0,0,0,0,0,0,0,13,33,3,8,19,3,13,36,0,8,20,0,16,33,0,9,17,0,13,36,0,8,20,0,16,33,0,9,17,0,16,33,0,9,17,0,16,33,0,9,17,0,0,49,0,2,25,0,13,36,0,8,19,0,13,36,0,8,19,0,0,49,0,0,25,0,0,49,0,0,25,0,3,46,0,3,24,0,15,34,0,9,18,0,46,1,2,24,3,2
2017-06-28T23:59:57Z,25,49,29,17,48,25,28,17,3,3,0,0,0,0,0,0,0,49,0,25,0,49,0,25,0,0,0,0,0,0,0,0,13,33,3,8,19,3,13,36,0,8,20,0,16,33,0,9,17,0,13,36,0,8,20,0,16,33,0,9,17,0,16,33,0,9,17,0,16,33,0,9,17,0,0,49,0,2,25,0,13,36,0,8,19,0,13,36,0,8,19,0,0,49,0,0,25,0,0,49,0,0,25,0,3,46,0,3,24,0,15,34,0,9,18,0,46,1,2,24,3,2
2017-06-29T23:59:58Z,25,49,30,17,49,25,28,17,3,3,0,0,0,0,0,0,0,49,0,25,0,49,0,25,0,0,0,0,0,0,0,0,13,33,3,8,19,3,13,36,0,8,20,0,16,33,0,9,17,0,13,36,0,8,20,0,16,33,0,9,17,0,16,33,0,9,17,0,16,33,0,9,17,0,0,49,0,2,25,0,13,36,0,8,19,0,13,36,0,8,19,0,0,49,0,0,25,0,0,49,0,0,25,0,3,46,0,3,24,0,15,34,0,9,18,0,46,1,2,24,3,2
2017-06-30T23:59:58Z,25,49,30,17,49,25,28,17,3,3,0,0,0,0,0,0,0,49,0,25,0,49,0,25,0,0,0,0,0,0,0,0,13,33,3,8,19,3,13,36,0,8,20,0,16,33,0,9,17,0,13,36,0,8,20,0,16,33,0,9,17,0,16,33,0,9,17,0,16,33,0,9,17,0,0,49,0,2,25,0,13,36,0,8,19,0,13,36,0,8,19,0,0,49,0,0,25,0,0,49,0,0,25,0,3,46,0,3,24,0,15,34,0,9,18,0,46,1,2,24,3,2
2017-07-01T23:59:59Z,25,49,30,17,49,25,28,17,3,3,0,0,0,0,0,0,0,49,0,25,0,49,0,25,0,0,0,0,0,0,0,0,13,33,3,8,19,3,13,36,0,8,20,0,16,33,0,9,17,0,13,36,0,8,20,0,16,33,0,9,17,0,16,33,0,9,17,0,16,33,0,9,17,0,0,49,0,2,25,0,13,36,0,8,19,0,13,36,0,8,19,0,0,49,0,0,25,0,0,49,0,0,25,0,3,46,0,3,24,0,15,34,0,9,18,0,46,1,2,24,3,2
2017-07-02T23:59:59Z,25,49,30,17,49,25,28,17,3,3,0,0,0,0,0,0,0,49,0,25,0,49,0,25,0,0,0,0,0,0,0,0,13,33,3,8,19,3,13,36,0,8,20,0,16,33,0,9,17,0,13,36,0,8,20,0,16,33,0,9,17,0,16,33,0,9,17,0,16,33,0,9,17,0,0,49,0,2,25,0,13,36,0,8,19,0,13,36,0,8,19,0,0,49,0,0,25,0,0,49,0,0,25,0,3,46,0,3,24,0,15,34,0,9,18,0,46,1,2,24,3,2
2017-07-03T23:59:58Z,25,49,30,17,49,25,28,17,3,3,0,0,0,0,0,0,0,49,0,25,0,49,0,25,0,0,0,0,0,0,0,0,13,33,3,8,19,3,13,36,0,8,20,0,16,33,0,9,17,0,13,36,0,8,20,0,16,33,0,9,17,0,16,33,0,9,17,0,16,33,0,9,17,0,0,49,0,2,25,0,13,36,0,8,19,0,13,36,0,8,19,0,0,49,0,0,25,0,0,49,0,0,25,0,3,46,0,3,24,0,15,34,0,9,18,0,46,1,2,24,3,2
2017-07-04T23:59:57Z,25,49,30,17,49,25,28,17,3,3,0,0,0,0,0,0,0,49,0,25,0,49,0,25,0,0,0,0,0,0,0,0,13,33,3,8,19,3,13,36,0,8,20,0,16,33,0,9,17,0,13,36,0,8,20,0,16,33,0,9,17,0,16,33,0,9,17,0,16,33,0,9,17,0,0,49,0,2,25,0,13,36,0,8,19,0,13,36,0,8,19,0,0,49,0,0,25,0,0,49,0,0,25,0,3,46,0,3,24,0,15,34,0,9,18,0,46,1,2,24,3,2
2017-07-05T23:59:59Z,25,49,30,17,49,25,28,17,3,3,0,0,0,0,0,0,0,49,0,25,0,49,0,25,0,0,0,0,0,0,0,0,13,33,3,8,19,3,13,36,0,8,20,0,16,33,0,9,17,0,13,36,0,8,20,0,16,33,0,9,17,0,16,33,0,9,17,0,16,33,0,9,17,0,0,49,0,2,25,0,13,36,0,8,19,0,13,36,0,8,19,0,0,49,0,0,25,0,0,49,0,0,25,0,3,46,0,3,24,0,15,34,0,9,18,0,46,1,2,24,3,2
2017-07-06T23:59:59Z,25,49,30,17,49,25,28,17,3,3,0,0,0,0,0,0,0,49,0,25,0,49,0,25,0,0,0,0,0,0,0,0,13,33,3,8,19,3,13,36,0,8,20,0,16,33,0,9,17,0,13,36,0,8,20,0,16,33,0,9,17,0,16,33,0,9,17,0,16,33,0,9,17,0,0,49,0,2,25,0,13,36,0,8,19,0,13,36,0,8,19,0,0,49,0,0,25,0,0,49,0,0,25,0,3,46,0,3,24,0,15,34,0,9,18,0,46,1,2,24,3,2
2017-07-07T23:59:58Z,25,49,30,17,48,25,28,17,3,3,0,0,0,0,0,0,0,49,0,25,0,49,0,25,0,0,0,0,0,0,0,0,13,33,3,8,19,3,13,36,0,8,20,0,16,33,0,9,17,0,13,36,0,8,20,0,16,33,0,9,17,0,16,33,0,9,17,0,16,33,0,9,17,0,0,49,0,2,25,0,13,36,0,8,19,0,13,36,0,8,19,0,0,49,0,0,25,0,0,49,0,0,25,0,3,46,0,3,24,0,15,34,0,9,18,0,46,1,2,24,3,2
2017-07-08T23:59:58Z,25,49,30,17,49,25,28,17,3,3,0,0,0,0,0,0,0,49,0,25,0,49,0,25,0,0,0,0,0,0,0,0,13,33,3,8,19,3,13,36,0,8,20,0,16,33,0,9,17,0,13,36,0,8,20,0,16,33,0,9,17,0,16,33,0,9,17,0,16,33,0,9,17,0,0,49,0,2,25,0,13,36,0,8,19,0,13,36,0,8,19,0,0,49,0,0,25,0,0,49,0,0,25,0,3,46,0,3,24,0,15,34,0,9,18,0,46,1,2,24,3,2
2017-07-09T23:59:57Z,25,49,30,17,48,25,28,17,3,3,0,0,0,0,0,0,0,49,0,25,0,49,0,25,0,0,0,0,0,0,0,0,13,33,3,8,19,3,13,36,0,8,20,0,16,33,0,9,17,0,13,36,0,8,20,0,16,33,0,9,17,0,16,33,0,9,17,0,16,33,0,9,17,0,0,49,0,2,25,0,13,36,0,8,19,0,13,36,0,8,19,0,0,49,0,0,25,0,0,49,0,0,25,0,3,46,0,3,24,0,15,34,0,9,18,0,46,1,2,24,3,2
2017-07-10T23:59:58Z,25,49,30,17,49,25,28,17,3,3,0,0,0,0,0,0,0,49,0,25,0,49,0,25,0,0,0,0,0,0,0,0,13,33,3,8,19,3,13,36,0,8,20,0,16,33,0,9,17,0,13,36,0,8,20,0,16,33,0,9,17,0,16,33,0,9,17,0,16,33,0,9,17,0,0,49,0,2,25,0,13,36,0,8,19,0,13,36,0,8,19,0,0,49,0,0,25,0,0,49,0,0,25,0,3,46,0,3,24,0,15,34,0,9,18,0,46,1,2,24,3,2
2017-07-11T23:59:58Z,24,47,27,16,47,24,25,16,3,3,0,0,0,0,0,0,0,47,0,24,0,47,0,24,0,0,0,0,0,0,0,0,13,31,3,8,18,3,13,34,0,8,19,0,16,31,0,9,16,0,13,34,0,8,19,0,16,31,0,9,16,0,16,31,0,9,16,0,16,31,0,9,16,0,0,47,0,2,24,0,13,34,0,8,18,0,13,34,0,8,18,0,0,47,0,0,24,0,0,47,0,0,24,0,3,44,0,3,23,0,15,32,0,9,17,0,44,1,2,23,3,2
2017-07-12T23:59:06Z,24,47,27,16,47,24,25,16,3,3,0,0,0,0,0,0,0,47,0,24,0,47,0,24,0,0,0,0,0,0,0,0,13,31,3,8,18,3,13,34,0,8,19,0,16,31,0,9,16,0,13,34,0,8,19,0,16,31,0,9,16,0,16,31,0,9,16,0,16,31,0,9,16,0,0,47,0,2,24,0,13,34,0,8,18,0,13,34,0,8,18,0,0,47,0,0,24,0,0,47,0,0,24,0,3,44,0,3,23,0,15,32,0,9,17,0,44,1,2,23,3,2
2017-07-13T23:59:06Z,24,49,29,16,49,24,27,16,3,3,0,0,0,0,0,0,0,49,0,24,0,49,0,24,0,0,0,0,0,0,0,0,15,31,3,8,18,3,15,34,0,8,19,0,18,31,0,9,16,0,15,34,0,8,19,0,18,31,0,9,16,0,18,31,0,9,16,0,18,31,0,9,16,0,0,49,0,2,24,0,15,34,0,8,18,0,15,34,0,8,18,0,0,49,0,0,24,0,0,49,0,0,24,0,3,46,0,3,23,0,17,32,0,9,17,0,46,1,2,23,3,2
2017-07-14T23:59:58Z,24,47,27,16,47,24,25,16,3,3,0,0,0,0,0,0,0,47,0,24,0,47,0,24,0,0,0,0,0,0,0,0,13,31,3,8,18,3,13,34,0,8,19,0,16,31,0,9,16,0,13,34,0,8,19,0,16,31,0,9,16,0,16,31,0,9,16,0,16,31,0,9,16,0,0,47,0,2,24,0,13,34,0,8,18,0,13,34,0,8,18,0,0,47,0,0,24,0,0,47,0,0,24,0,3,44,0,3,23,0,15,32,0,9,17,0,44,1,2,23,3,2
2017-07-15T23:59:57Z,24,47,27,16,47,24,25,16,3,3,0,0,0,0,0,0,0,47,0,24,0,47,0,24,0,0,0,0,0,0,0,0,13,31,3,8,18,3,13,34,0,8,19,0,16,31,0,9,16,0,13,34,0,8,19,0,16,31,0,9,16,0,16,31,0,9,16,0,16,31,0,9,16,0,0,47,0,2,24,0,13,34,0,8,18,0,13,34,0,8,18,0,0,47,0,0,24,0,0,47,0,0,24,0,3,44,0,3,23,0,15,32,0,9,17,0,44,1,2,23,3,2
2017-07-16T23:59:07Z,24,47,27,16,47,24,25,16,3,3,0,0,0,0,0,0,0,47,0,24,0,47,0,24,0,0,0,0,0,0,0,0,13,31,3,8,18,3,13,34,0,8,19,0,16,31,0,9,16,0,13,34,0,8,19,0,16,31,0,9,16,0,16,31,0,9,16,0,16,31,0,9,16,0,0,47,0,2,24,0,13,34,0,8,18,0,13,34,0,8,18,0,0,47,0,0,24,0,0,47,0,0,24,0,3,44,0,3,23,0,15,32,0,9,17,0,44,1,2,23,3,2
2017-07-17T23:59:06Z,25,50,30,17,50,25,28,17,3,3,0,0,0,0,0,0,0,50,0,25,0,50,0,25,0,0,0,0,0,0,0,0,13,34,3,8,19,3,13,37,0,8,20,0,16,34,0,9,17,0,13,37,0,8,20,0,16,34,0,9,17,0,16,34,0,9,17,0,16,34,0,9,17,0,0,50,0,2,25,0,13,37,0,8,19,0,13,37,0,8,19,0,0,50,0,0,25,0,0,50,0,0,25,0,3,47,0,3,24,0,15,35,0,9,18,0,47,1,2,24,3,2
2017-07-18T23:59:07Z,25,50,30,17,50,25,28,17,3,3,0,0,0,0,0,0,0,50,0,25,0,50,0,25,0,0,0,0,0,0,0,0,13,34,3,8,19,3,13,37,0,8,20,0,16,34,0,9,17,0,13,37,0,8,20,0,16,34,0,9,17,0,16,34,0,9,17,0,16,34,0,9,17,0,0,50,0,2,25,0,13,37,0,8,19,0,13,37,0,8,19,0,0,50,0,0,25,0,0,50,0,0,25,0,3,47,0,3,24,0,15,35,0,9,18,0,47,1,2,24,3,2
2017-07-19T23:59:59Z,25,52,32,17,52,25,30,17,3,3,0,0,0,0,0,0,0,52,0,25,0,52,0,25,0,0,0,0,0,0,0,0,15,34,3,8,19,3,15,37,0,8,20,0,18,34,0,9,17,0,15,37,0,8,20,0,18,34,0,9,17,0,18,34,0,9,17,0,18,34,0,9,17,0,0,52,0,2,25,0,15,37,0,8,19,0,15,37,0,8,19,0,0,52,0,0,25,0,0,52,0,0,25,0,3,49,0,3,24,0,17,35,0,9,18,0,49,1,2,24,3,2
2017-07-20T23:59:59Z,25,50,30,17,50,25,28,17,3,3,0,0,0,0,0,0,0,50,0,25,0,50,0,25,0,0,0,0,0,0,0,0,13,34,3,8,19,3,13,37,0,8,20,0,16,34,0,9,17,0,13,37,0,8,20,0,16,34,0,9,17,0,16,34,0,9,17,0,16,34,0,9,17,0,0,50,0,2,25,0,13,37,0,8,19,0,13,37,0,8,19,0,0,50,0,0,25,0,0,50,0,0,25,0,3,47,0,3,24,0,15,35,0,9,18,0,47,1,2,24,3,2
2017-07-21T23:59:59Z,25,50,30,17,50,25,28,17,3,3,0,0,0,0,0,0,0,50,0,25,0,50,0,25,0,0,0,0,0,0,0,0,13,34,3,8,19,3,13,37,0,8,20,0,16,34,0,9,17,0,13,37,0,8,20,0,16,34,0,9,17,0,16,34,0,9,17,0,16,34,0,9,17,0,0,50,0,2,25,0,13,37,0,8,19,0,13,37,0,8,19,0,0,50,0,0,25,0,0,50,0,0,25,0,3,47,0,3,24,0,15,35,0,9,18,0,47,1,2,24,3,2
2017-07-22T23:59:08Z,25,50,30,17,50,25,29,17,3,3,0,0,0,0,0,0,0,50,0,25,0,50,0,25,0,0,0,0,0,0,0,0,13,34,3,8,19,3,13,37,0,8,20,0,16,34,0,9,17,0,13,37,0,8,20,0,16,34,0,9,17,0,16,34,0,9,17,0,16,34,0,9,17,0,0,50,0,2,25,0,13,37,0,8,19,0,13,37,0,8,19,0,0,50,0,0,25,0,0,50,0,0,25,0,3,47,0,3,24,0,15,35,0,9,18,0,47,1,2,24,3,2
2017-07-23T23:59:57Z,25,50,30,17,50,25,29,17,3,3,0,0,0,0,0,0,0,50,0,25,0,50,0,25,0,0,0,0,0,0,0,0,13,34,3,8,19,3,13,37,0,8,20,0,16,34,0,9,17,0,13,37,0,8,20,0,16,34,0,9,17,0,16,34,0,9,17,0,16,34,0,9,17,0,0,50,0,2,25,0,13,37,0,8,19,0,13,37,0,8,19,0,0,50,0,0,25,0,0,50,0,0,25,0,3,47,0,3,24,0,15,35,0,9,18,0,47,1,2,24,3,2
2017-07-24T23:59:06Z,25,50,30,17,50,25,29,17,3,3,0,0,0,0,0,0,0,50,0,25,0,50,0,25,0,0,0,0,0,0,0,0,13,34,3,8,19,3,13,37,0,8,20,0,16,34,0,9,17,0,13,37,0,8,20,0,16,34,0,9,17,0,16,34,0,9,17,0,16,34,0,9,17,0,0,50,0,2,25,0,12,38,0,7,20,0,13,37,0,8,19,0,0,50,0,0,25,0,0,50,0,0,25,0,3,47,0,3,24,0,15,35,0,9,18,0,47,1,2,24,3,2
2017-07-25T23:59:57Z,25,50,30,17,49,25,29,17,3,3,0,0,0,0,0,0,0,50,0,25,0,50,0,25,0,0,0,0,0,0,0,0,13,34,3,8,19,3,13,37,0,8,20,0,16,34,0,9,17,0,13,37,0,8,20,0,16,34,0,9,17,0,16,34,0,9,17,0,16,34,0,9,17,0,0,50,0,2,25,0,13,37,0,8,19,0,13,37,0,8,19,0,0,50,0,0,25,0,0,50,0,0,25,0,3,47,0,3,24,0,15,35,0,9,18,0,47,1,2,24,3,2
2017-07-26T23:59:57Z,25,50,30,17,50,25,29,17,3,3,0,0,0,0,0,0,0,50,0,25,0,50,0,25,0,0,0,0,0,0,0,0,13,34,3,8,19,3,13,37,0,8,20,0,16,34,0,9,17,0,13,37,0,8,20,0,16,34,0,9,17,0,16,34,0,9,17,0,16,34,0,9,17,0,0,50,0,2,25,0,13,37,0,8,19,0,13,37,0,8,19,0,0,50,0,0,25,0,0,50,0,0,25,0,3,47,0,3,24,0,15,35,0,9,18,0,47,1,2,24,3,2
2017-07-27T23:59:58Z,25,50,30,17,50,25,29,17,3,3,0,0,0,0,0,0,0,50,0,25,0,50,0,25,0,0,0,0,0,0,0,0,13,34,3,8,19,3,13,37,0,8,20,0,16,34,0,9,17,0,13,37,0,8,20,0,16,34,0,9,17,0,16,34,0,9,17,0,16,34,0,9,17,0,0,50,0,2,25,0,13,37,0,8,19,0,13,37,0,8,19,0,0,50,0,0,25,0,0,50,0,0,25,0,3,47,0,3,24,0,15,35,0,9,18,0,47,1,2,24,3,2
2017-07-28T23:59:58Z,25,50,30,17,50,25,29,17,3,3,0,0,0,0,0,0,0,50,0,25,0,50,0,25,0,0,0,0,0,0,0,0,13,34,3,8,19,3,13,37,0,8,20,0,16,34,0,9,17,0,13,37,0,8,20,0,16,34,0,9,17,0,16,34,0,9,17,0,16,34,0,9,17,0,0,50,0,2,25,0,13,37,0,8,19,0,13,37,0,8,19,0,0,50,0,0,25,0,0,50,0,0,25,0,3,47,0,3,24,0,15,35,0,9,18,0,47,1,2,24,3,2
2017-07-29T23:59:58Z,25,50,30,17,50,25,29,17,3,3,0,0,0,0,0,0,0,50,0,25,0,50,0,25,0,0,0,0,0,0,0,0,13,34,3,8,19,3,13,37,0,8,20,0,16,34,0,9,17,0,13,37,0,8,20,0,16,34,0,9,17,0,16,34,0,9,17,0,16,34,0,9,17,0,0,50,0,2,25,0,13,37,0,8,19,0,13,37,0,8,19,0,0,50,0,0,25,0,0,50,0,0,25,0,3,47,0,3,24,0,15,35,0,9,18,0,47,1,2,24,3,2
2017-07-30T23:59:08Z,24,47,27,16,47,24,26,16,3,3,0,0,0,0,0,0,0,47,0,24,0,47,0,24,0,0,0,0,0,0,0,0,13,31,3,8,18,3,13,34,0,8,19,0,16,31,0,9,16,0,13,34,0,8,19,0,16,31,0,9,16,0,16,31,0,9,16,0,16,31,0,9,16,0,0,47,0,2,24,0,13,34,0,8,18,0,13,34,0,8,18,0,0,47,0,0,24,0,0,47,0,0,24,0,3,44,0,3,23,0,15,32,0,9,17,0,44,1,2,23,3,2
2017-07-31T23:59:58Z,24,47,27,16,47,24,26,16,3,3,0,0,0,0,0,0,0,47,0,24,0,47,0,24,0,0,0,0,0,0,0,0,13,31,3,8,18,3,13,34,0,8,19,0,16,31,0,9,16,0,13,34,0,8,19,0,16,31,0,9,16,0,16,31,0,9,16,0,16,31,0,9,16,0,0,47,0,2,24,0,13,34,0,8,18,0,13,34,0,8,18,0,0,47,0,0,24,0,0,47,0,0,24,0,3,44,0,3,23,0,15,32,0,9,17,0,44,1,2,23,3,2
2017-08-01T23:59:58Z,24,47,27,16,47,24,26,16,3,3,0,0,0,0,0,0,0,47,0,24,0,47,0,24,0,0,0,0,0,0,0,0,13,31,3,8,18,3,13,34,0,8,19,0,16,31,0,9,16,0,13,34,0,8,19,0,16,31,0,9,16,0,16,31,0,9,16,0,16,31,0,9,16,0,0,47,0,2,24,0,13,34,0,8,18,0,13,34,0,8,18,0,0,47,0,0,24,0,0,47,0,0,24,0,3,44,0,3,23,0,15,32,0,9,17,0,44,1,2,23,3,2
2017-08-02T23:59:58Z,24,47,27,16,47,24,26,16,3,3,0,0,0,0,0,0,0,47,0,24,0,47,0,24,0,0,0,0,0,0,0,0,13,31,3,8,18,3,13,34,0,8,19,0,16,31,0,9,16,0,13,34,0,8,19,0,16,31,0,9,16,0,16,31,0,9,16,0,16,31,0,9,16,0,0,47,0,2,24,0,13,34,0,8,18,0,13,34,0,8,18,0,0,47,0,0,24,0,0,47,0,0,24,0,3,44,0,3,23,0,15,32,0,9,17,0,44,1,2,23,3,2
2017-08-03T23:59:59Z,24,47,27,16,47,24,26,16,3,3,0,0,0,0,0,0,0,47,0,24,0,47,0,24,0,0,0,0,0,0,0,0,13,31,3,8,18,3,13,34,0,8,19,0,16,31,0,9,16,0,13,34,0,8,19,0,16,31,0,9,16,0,16,31,0,9,16,0,16,31,0,9,16,0,0,47,0,2,24,0,13,34,0,8,18,0,13,34,0,8,18,0,0,47,0,0,24,0,0,47,0,0,24,0,3,44,0,3,23,0,15,32,0,9,17,0,44,1,2,23,3,2
2017-08-04T23:59:07Z,24,47,27,16,46,24,26,16,3,3,0,0,0,0,0,0,0,47,0,24,0,47,0,24,0,0,0,0,0,0,0,0,13,31,3,8,18,3,13,34,0,8,19,0,16,31,0,9,16,0,13,34,0,8,19,0,16,31,0,9,16,0,16,31,0,9,16,0,16,31,0,9,16,0,0,47,0,2,24,0,13,34,0,8,18,0,13,34,0,8,18,0,0,47,0,0,24,0,0,47,0,0,24,0,3,44,0,3,23,0,15,32,0,9,17,0,44,1,2,23,3,2
2017-08-05T23:59:06Z,24,47,27,16,47,24,26,16,3,3,0,0,0,0,0,0,0,47,0,24,0,47,0,24,0,0,0,0,0,0,0,0,13,31,3,8,18,3,13,34,0,8,19,0,16,31,0,9,16,0,13,34,0,8,19,0,16,31,0,9,16,0,16,31,0,9,16,0,16,31,0,9,16,0,0,47,0,2,24,0,13,34,0,8,18,0,13,34,0,8,18,0,0,47,0,0,24,0,0,47,0,0,24,0,3,44,0,3,23,0,15,32,0,9,17,0,44,1,2,23,3,2
2017-08-06T23:59:08Z,23,45,25,15,44,23,24,15,2,2,0,0,0,0,0,0,0,45,0,23,0,45,0,23,0,0,0,0,0,0,0,0,12,31,2,7,17,2,12,33,0,7,18,0,14,31,0,8,16,0,12,33,0,7,18,0,14,31,0,8,16,0,14,31,0,8,16,0,14,31,0,8,16,0,0,45,0,1,23,0,11,34,0,7,18,0,11,34,0,7,18,0,0,45,0,0,23,0,0,45,0,0,23,0,2,43,0,2,22,0,13,32,0,8,17,0,43,1,1,22,2,1
2017-08-07T23:59:58Z,24,47,27,16,47,24,26,16,3,3,0,0,0,0,0,0,0,47,0,24,0,47,0,24,0,0,0,0,0,0,0,0,13,31,3,8,18,3,13,34,0,8,19,0,16,31,0,9,16,0,13,34,0,8,19,0,16,31,0,9,16,0,16,31,0,9,16,0,16,31,0,9,16,0,0,47,0,2,24,0,13,34,0,8,18,0,13,34,0,8,18,0,0,47,0,0,24,0,0,47,0,0,24,0,3,44,0,3,23,0,15,32,0,9,17,0,44,1,2,23,3,2
2017-08-08T23:59:59Z,24,47,27,16,46,24,26,16,3,3,0,0,0,0,0,0,0,47,0,24,0,47,0,24,0,0,0,0,0,0,0,0,13,31,3,8,18,3,13,34,0,8,19,0,16,31,0,9,16,0,13,34,0,8,19,0,16,31,0,9,16,0,16,31,0,9,16,0,16,31,0,9,16,0,0,47,0,2,24,0,13,34,0,8,18,0,13,34,0,8,18,0,0,47,0,0,24,0,0,47,0,0,24,0,3,44,0,3,23,0,15,32,0,9,17,0,44,1,2,23,3,2
2017-08-09T23:59:58Z,23,46,26,15,46,23,25,15,3,3,0,0,0,0,0,0,0,46,0,23,0,46,0,23,0,0,0,0,0,0,0,0,13,30,3,8,17,3,13,33,0,8,18,0,16,30,0,9,15,0,13,33,0,8,18,0,16,30,0,9,15,0,16,30,0,9,15,0,16,30,0,9,15,0,0,46,0,2,23,0,13,33,0,8,17,0,13,33,0,8,17,0,0,46,0,0,23,0,0,46,0,0,23,0,3,43,0,3,22,0,15,31,0,9,16,0,43,1,2,22,3,2
2017-08-10T23:59:59Z,23,46,26,15,46,23,25,15,3,3,0,0,0,0,0,0,0,46,0,23,0,46,0,23,0,0,0,0,0,0,0,0,13,30,3,8,17,3,13,33,0,8,18,0,16,30,0,9,15,0,13,33,0,8,18,0,16,30,0,9,15,0,16,30,0,9,15,0,16,30,0,9,15,0,0,46,0,2,23,0,13,33,0,8,17,0,13,33,0,8,17,0,0,46,0,0,23,0,0,46,0,0,23,0,3,43,0,3,22,0,15,31,0,9,16,0,43,1,2,22,3,2
2017-08-11T23:59:58Z,23,46,26,15,45,23,25,15,3,3,0,0,0,0,0,0,0,46,0,23,0,46,0,23,0,0,0,0,0,0,0,0,13,30,3,8,17,3,13,33,0,8,18,0,16,30,0,9,15,0,13,33,0,8,18,0,16,30,0,9,15,0,16,30,0,9,15,0,16,30,0,9,15,0,0,46,0,2,23,0,13,33,0,8,17,0,13,33,0,8,17,0,0,46,0,0,23,0,0,46,0,0,23,0,3,43,0,3,22,0,15,31,0,9,16,0,43,1,2,22,3,2
2017-08-12T23:59:59Z,23,46,26,15,46,23,25,15,3,3,0,0,0,0,0,0,0,46,0,23,0,46,0,23,0,0,0,0,0,0,0,0,13,30,3,8,17,3,13,33,0,8,18,0,16,30,0,9,15,0,13,33,0,8,18,0,16,30,0,9,15,0,16,30,0,9,15,0,16,30,0,9,15,0,0,46,0,2,23,0,13,33,0,8,17,0,13,33,0,8,17,0,0,46,0,0,23,0,0,46,0,0,23,0,3,43,0,3,22,0,15,31,0,9,16,0,43,1,2,22,3,2
2017-08-13T23:59:58Z,23,46,26,15,46,23,25,15,3,3,0,0,0,0,0,0,0,46,0,23,0,46,0,23,0,0,0,0,0,0,0,0,13,30,3,8,17,3,13,33,0,8,18,0,16,30,0,9,15,0,13,33,0,8,18,0,16,30,0,9,15,0,16,30,0,9,15,0,16,30,0,9,15,0,0,46,0,2,23,0,13,33,0,8,17,0,13,33,0,8,17,0,0,46,0,0,23,0,0,46,0,0,23,0,3,43,0,3,22,0,15,31,0,9,16,0,43,1,2,22,3,2
2017-08-14T23:59:05Z,26,53,33,18,53,26,29,17,3,3,0,0,0,0,0,0,0,53,0,26,0,53,0,26,0,0,0,0,0,0,0,0,13,37,3,8,20,3,13,40,0,8,21,0,16,37,0,9,18,0,13,40,0,8,21,0,16,37,0,9,18,0,16,37,0,9,18,0,16,37,0,9,18,0,0,53,0,2,26,0,13,40,0,8,20,0,13,40,0,8,20,0,0,53,0,0,26,0,0,53,0,0,26,0,3,50,0,3,25,0,15,38,0,9,19,0,50,1,2,25,3,2
2017-08-15T23:59:57Z,26,53,33,18,53,26,29,17,3,3,0,0,0,0,0,0,0,53,0,26,0,53,0,26,0,0,0,0,0,0,0,0,13,37,3,8,20,3,13,40,0,8,21,0,16,37,0,9,18,0,13,40,0,8,21,0,16,37,0,9,18,0,16,37,0,9,18,0,16,37,0,9,18,0,0,53,0,2,26,0,13,40,0,8,20,0,13,40,0,8,20,0,0,53,0,0,26,0,0,53,0,0,26,0,3,50,0,3,25,0,15,38,0,9,19,0,50,1,2,25,3,2
2017-08-16T23:59:59Z,26,53,33,18,53,26,29,17,3,3,0,0,0,0,0,0,0,53,0,26,0,53,0,26,0,0,0,0,0,0,0,0,13,37,3,8,20,3,13,40,0,8,21,0,16,37,0,9,18,0,13,40,0,8,21,0,16,37,0,9,18,0,16,37,0,9,18,0,16,37,0,9,18,0,0,53,0,2,26,0,13,40,0,8,20,0,13,40,0,8,20,0,0,53,0,0,26,0,0,53,0,0,26,0,3,50,0,3,25,0,15,38,0,9,19,0,50,1,2,25,3,2
2017-08-17T23:59:57Z,26,53,33,18,53,26,29,17,3,3,0,0,0,0,0,0,0,53,0,26,0,53,0,26,0,0,0,0,0,0,0,0,13,37,3,8,20,3,13,40,0,8,21,0,16,37,0,9,18,0,13,40,0,8,21,0,16,37,0,9,18,0,16,37,0,9,18,0,16,37,0,9,18,0,0,53,0,2,26,0,13,40,0,8,20,0,13,40,0,8,20,0,0,53,0,0,26,0,0,53,0,0,26,0,3,50,0,3,25,0,15,38,0,9,19,0,50,1,2,25,3,2
2017-08-18T23:59:57Z,26,53,33,18,53,26,29,17,3,3,0,0,0,0,0,0,0,53,0,26,0,53,0,26,0,0,0,0,0,0,0,0,13,37,3,8,20,3,13,40,0,8,21,0,16,37,0,9,18,0,13,40,0,8,21,0,16,37,0,9,18,0,16,37,0,9,18,0,16,37,0,9,18,0,0,53,0,2,26,0,13,40,0,8,20,0,13,40,0,8,20,0,0,53,0,0,26,0,0,53,0,0,26,0,3,50,0,3,25,0,15,38,0,9,19,0,50,1,2,25,3,2
2017-08-19T23:59:57Z,26,53,33,18,53,26,29,17,3,3,0,0,0,0,0,0,0,53,0,26,0,53,0,26,0,0,0,0,0,0,0,0,13,37,3,8,20,3,13,40,0,8,21,0,16,37,0,9,18,0,13,40,0,8,21,0,16,37,0,9,18,0,16,37,0,9,18,0,16,37,0,9,18,0,0,53,0,2,26,0,13,40,0,8,20,0,13,40,0,8,20,0,0,53,0,0,26,0,0,53,0,0,26,0,3,50,0,3,25,0,15,38,0,9,19,0,50,1,2,25,3,2
2017-08-20T23:59:08Z,26,53,33,18,53,26,29,17,3,3,0,0,0,0,0,0,0,53,0,26,0,53,0,26,0,0,0,0,0,0,0,0,13,37,3,8,20,3,13,40,0,8,21,0,16,37,0,9,18,0,13,40,0,8,21,0,16,37,0,9,18,0,16,37,0,9,18,0,16,37,0,9,18,0,0,53,0,2,26,0,13,40,0,8,20,0,13,40,0,8,20,0,0,53,0,0,26,0,0,53,0,0,26,0,3,50,0,3,25,0,15,38,0,9,19,0,50,1,2,25,3,2
2017-08-21T23:59:59Z,26,53,33,18,53,26,29,17,3,3,0,0,0,0,0,0,0,53,0,26,0,53,0,26,0,0,0,0,0,0,0,0,13,37,3,8,20,3,13,40,0,8,21,0,16,37,0,9,18,0,13,40,0,8,21,0,16,37,0,9,18,0,16,37,0,9,18,0,16,37,0,9,18,0,0,53,0,2,26,0,13,40,0,8,20,0,13,40,0,8,20,0,0,53,0,0,26,0,0,53,0,0,26,0,3,50,0,3,25,0,15,38,0,9,19,0,50,1,2,25,3,2
2017-08-22T23:59:57Z,26,53,33,18,53,26,29,17,3,3,0,0,0,0,0,0,0,53,0,26,0,53,0,26,0,0,0,0,0,0,0,0,13,37,3,8,20,3,13,40,0,8,21,0,16,37,0,9,18,0,13,40,0,8,21,0,16,37,0,9,18,0,16,37,0,9,18,0,16,37,0,9,18,0,0,53,0,2,26,0,13,40,0,8,20,0,13,40,0,8,20,0,0,53,0,0,26,0,0,53,0,0,26,0,3,50,0,3,25,0,15,38,0,9,19,0,50,1,2,25,3,2
2017-08-23T23:59:07Z,26,53,33,18,53,26,29,17,3,3,0,0,0,0,0,0,0,53,0,26,0,53,0,26,0,0,0,0,0,0,0,0,13,37,3,8,20,3,13,40,0,8,21,0,16,37,0,9,18,0,13,40,0,8,21,0,16,37,0,9,18,0,16,37,0,9,18,0,16,37,0,9,18,0,0,53,0,2,26,0,13,40,0,8,20,0,13,40,0,8,20,0,0,53,0,0,26,0,0,53,0,0,26,0,3,50,0,3,25,0,15,38,0,9,19,0,50,1,2,25,3,2
2017-08-24T23:59:59Z,26,53,33,18,53,26,29,17,3,3,0,0,0,0,0,0,0,53,0,26,0,53,0,26,0,0,0,0,0,0,0,0,13,37,3,8,20,3,13,40,0,8,21,0,16,37,0,9,18,0,13,40,0,8,21,0,16,37,0,9,18,0,16,37,0,9,18,0,16,37,0,9,18,0,0,53,0,2,26,0,13,40,0,8,20,0,13,40,0,8,20,0,0,53,0,0,26,0,0,53,0,0,26,0,3,50,0,3,25,0,15,38,0,9,19,0,50,1,2,25,3,2
2017-08-25T23:59:59Z,26,53,33,18,53,26,29,17,3,3,0,0,0,0,0,0,0,53,0,26,0,53,0,26,0,0,0,0,0,0,0,0,13,37,3,8,20,3,13,40,0,8,21,0,16,37,0,9,18,0,13,40,0,8,21,0,16,37,0,9,18,0,16,37,0,9,18,0,16,37,0,9,18,0,0,53,0,2,26,0,13,40,0,8,20,0,13,40,0,8,20,0,0,53,0,0,26,0,0,53,0,0,26,0,3,50,0,3,25,0,15,38,0,9,19,0,50,1,2,25,3,2
2017-08-26T23:59:58Z,25,52,32,17,52,25,28,16,3,3,0,0,0,0,0,0,0,52,0,25,0,52,0,25,0,0,0,0,0,0,0,0,13,36,3,8,19,3,13,39,0,8,20,0,16,36,0,9,17,0,13,39,0,8,20,0,16,36,0,9,17,0,16,36,0,9,17,0,16,36,0,9,17,0,0,52,0,2,25,0,13,39,0,8,19,0,13,39,0,8,19,0,0,52,0,0,25,0,0,52,0,0,25,0,3,49,0,3,24,0,15,37,0,9,18,0,49,1,2,24,3,2